contact:dominique.lefevre@mio.osupytheas.fr, maurice.libes@osupytheas.fr, didier.mallarino@osupytheas.fr
Project:EMSO http://www.emso-fr.org/EMSO-France
Depth: 2436.0 m
Title:EMSO Ligure Ouest : Data MII capteur CSTAR
DateTime,Latitude,Longitude,Instrument_Serial,Reference_Counts,Signal_Counts,Corrected_Signal_raw_counts,Calculated_Beam_c_inverse_meters,Internal_thermistor_counts
DateTime,Latitude,Longitude,Instrument_Serial,Reference_Counts,Signal_Counts,Corrected_Signal_raw_counts,Calculated_Beam_c_inverse_meters,Internal_thermistor_counts
2023-05-04T00:02:12,42.805,6.029,CST-1368DR,4308,4705,11597,01.190,551
2023-05-04T00:05:14,42.805,6.029,CST-1368DR,4308,4705,11595,01.191,551
2023-05-04T00:08:15,42.805,6.029,CST-1368DR,4308,4705,11596,01.191,552
2023-05-04T00:11:17,42.805,6.029,CST-1368DR,4308,4705,11595,01.191,552
2023-05-04T00:14:18,42.805,6.029,CST-1368DR,4308,4706,11598,01.190,551
2023-05-04T00:17:20,42.805,6.029,CST-1368DR,4308,4707,11601,01.189,551
2023-05-04T00:20:21,42.805,6.029,CST-1368DR,4308,4706,11598,01.190,552
2023-05-04T00:23:23,42.805,6.029,CST-1368DR,4308,4706,11598,01.190,552
2023-05-04T00:26:25,42.805,6.029,CST-1368DR,4308,4703,11592,01.192,551
2023-05-04T00:29:26,42.805,6.029,CST-1368DR,4308,4707,11602,01.188,551
2023-05-04T00:32:28,42.805,6.029,CST-1368DR,4308,4705,11595,01.191,552
2023-05-04T00:35:29,42.805,6.029,CST-1368DR,4308,4705,11595,01.191,552
2023-05-04T00:38:31,42.805,6.029,CST-1368DR,4308,4705,11597,01.190,552
2023-05-04T00:41:33,42.805,6.029,CST-1368DR,4308,4708,11603,01.188,551
2023-05-04T00:44:34,42.805,6.029,CST-1368DR,4308,4708,11604,01.188,552
2023-05-04T00:47:36,42.805,6.029,CST-1368DR,4308,4707,11602,01.188,552
2023-05-04T00:50:37,42.805,6.029,CST-1368DR,4308,4707,11600,01.189,552
2023-05-04T00:53:39,42.805,6.029,CST-1368DR,4308,4710,11608,01.186,552
2023-05-04T00:56:40,42.805,6.029,CST-1368DR,4308,4709,11605,01.187,551
2023-05-04T00:59:42,42.805,6.029,CST-1368DR,4308,4709,11606,01.187,552
2023-05-04T01:02:44,42.805,6.029,CST-1368DR,4308,4708,11603,01.188,552
2023-05-04T01:05:45,42.805,6.029,CST-1368DR,4308,4708,11604,01.188,552
2023-05-04T01:08:47,42.805,6.029,CST-1368DR,4308,4709,11606,01.187,552
2023-05-04T01:11:48,42.805,6.029,CST-1368DR,4308,4708,11604,01.188,552
2023-05-04T01:14:50,42.805,6.029,CST-1368DR,4308,4707,11602,01.188,552
2023-05-04T01:17:51,42.805,6.029,CST-1368DR,4308,4706,11597,01.190,551
2023-05-04T01:20:53,42.805,6.029,CST-1368DR,4308,4709,11605,01.187,552
2023-05-04T01:23:55,42.805,6.029,CST-1368DR,4308,4707,11600,01.189,552
2023-05-04T01:26:56,42.805,6.029,CST-1368DR,4308,4707,11602,01.188,552
2023-05-04T01:29:58,42.805,6.029,CST-1368DR,4308,4707,11600,01.189,552
2023-05-04T01:32:59,42.805,6.029,CST-1368DR,4308,4707,11600,01.189,552
2023-05-04T01:36:01,42.805,6.029,CST-1368DR,4308,4707,11601,01.189,552
2023-05-04T01:39:03,42.805,6.029,CST-1368DR,4308,4708,11603,01.188,551
2023-05-04T01:42:04,42.805,6.029,CST-1368DR,4308,4707,11600,01.189,552
2023-05-04T01:45:06,42.805,6.029,CST-1368DR,4308,4706,11598,01.190,552
2023-05-04T01:48:07,42.805,6.029,CST-1368DR,4308,4708,11604,01.188,552
2023-05-04T01:51:09,42.805,6.029,CST-1368DR,4308,4708,11603,01.188,551
2023-05-04T01:54:10,42.805,6.029,CST-1368DR,4307,4705,11599,01.190,552
2023-05-04T01:57:12,42.805,6.029,CST-1368DR,4308,4707,11601,01.189,552
2023-05-04T02:00:14,42.805,6.029,CST-1368DR,4308,4708,11603,01.188,551
2023-05-04T02:03:15,42.805,6.029,CST-1368DR,4308,4712,11612,01.185,551
2023-05-04T02:06:17,42.805,6.029,CST-1368DR,4307,4707,11604,01.188,552
2023-05-04T02:09:18,42.805,6.029,CST-1368DR,4308,4708,11604,01.188,552
2023-05-04T02:12:20,42.805,6.029,CST-1368DR,4308,4708,11604,01.188,552
2023-05-04T02:15:21,42.805,6.029,CST-1368DR,4307,4709,11608,01.186,552
2023-05-04T02:18:23,42.805,6.029,CST-1368DR,4308,4708,11604,01.188,552
2023-05-04T02:21:25,42.805,6.029,CST-1368DR,4308,4708,11603,01.188,552
2023-05-04T02:24:26,42.805,6.029,CST-1368DR,4308,4708,11604,01.188,551
2023-05-04T02:27:28,42.805,6.029,CST-1368DR,4308,4709,11605,01.187,552
2023-05-04T02:30:29,42.805,6.029,CST-1368DR,4308,4707,11601,01.189,551
2023-05-04T02:33:31,42.805,6.029,CST-1368DR,4308,4711,11610,01.186,552
2023-05-04T02:36:33,42.805,6.029,CST-1368DR,4308,4710,11609,01.186,551
2023-05-04T02:39:34,42.805,6.029,CST-1368DR,4308,4709,11606,01.187,551
2023-05-04T02:42:36,42.805,6.029,CST-1368DR,4307,4710,11612,01.185,551
2023-05-04T02:45:37,42.805,6.029,CST-1368DR,4307,4710,11610,01.186,552
2023-05-04T02:48:39,42.805,6.029,CST-1368DR,4307,4709,11609,01.186,552
2023-05-04T02:51:40,42.805,6.029,CST-1368DR,4307,4710,11612,01.185,551
2023-05-04T02:54:42,42.805,6.029,CST-1368DR,4308,4711,11611,01.185,551
2023-05-04T02:57:44,42.805,6.029,CST-1368DR,4308,4710,11607,01.187,551
2023-05-04T03:00:45,42.805,6.029,CST-1368DR,4307,4710,11612,01.185,551
2023-05-04T03:03:47,42.805,6.029,CST-1368DR,4308,4712,11614,01.184,551
2023-05-04T03:06:48,42.805,6.029,CST-1368DR,4308,4712,11612,01.185,551
2023-05-04T03:09:50,42.805,6.029,CST-1368DR,4308,4712,11614,01.184,552
2023-05-04T03:12:51,42.805,6.029,CST-1368DR,4307,4711,11614,01.184,552
2023-05-04T03:15:53,42.805,6.029,CST-1368DR,4308,4715,11621,01.182,552
2023-05-04T03:18:55,42.805,6.029,CST-1368DR,4307,4713,11618,01.183,551
2023-05-04T03:21:56,42.805,6.029,CST-1368DR,4308,4714,11618,01.183,552
2023-05-04T03:24:58,42.805,6.029,CST-1368DR,4308,4715,11619,01.183,552
2023-05-04T03:27:59,42.805,6.029,CST-1368DR,4307,4713,11618,01.183,552
2023-05-04T03:31:01,42.805,6.029,CST-1368DR,4307,4717,11627,01.180,551
2023-05-04T03:34:03,42.805,6.029,CST-1368DR,4308,4714,11618,01.183,551
2023-05-04T03:37:04,42.805,6.029,CST-1368DR,4307,4713,11618,01.183,551
2023-05-04T03:40:06,42.805,6.029,CST-1368DR,4307,4713,11617,01.183,552
2023-05-04T03:43:07,42.805,6.029,CST-1368DR,4307,4717,11628,01.180,551
2023-05-04T03:46:09,42.805,6.029,CST-1368DR,4307,4713,11617,01.183,552
2023-05-04T03:49:10,42.805,6.029,CST-1368DR,4307,4713,11618,01.183,551
2023-05-04T03:52:12,42.805,6.029,CST-1368DR,4307,4711,11614,01.184,551
2023-05-04T03:55:14,42.805,6.029,CST-1368DR,4307,4713,11618,01.183,551
2023-05-04T03:58:15,42.805,6.029,CST-1368DR,4307,4713,11618,01.183,552
2023-05-04T04:01:17,42.805,6.029,CST-1368DR,4307,4712,11615,01.184,551
2023-05-04T04:04:18,42.805,6.029,CST-1368DR,4307,4711,11613,01.185,551
2023-05-04T04:07:20,42.805,6.029,CST-1368DR,4307,4713,11619,01.183,551
2023-05-04T04:10:22,42.805,6.029,CST-1368DR,4307,4714,11620,01.182,552
2023-05-04T04:13:23,42.805,6.029,CST-1368DR,4307,4713,11617,01.183,552
2023-05-04T04:16:25,42.805,6.029,CST-1368DR,4307,4711,11612,01.185,552
2023-05-04T04:19:26,42.805,6.029,CST-1368DR,4307,4714,11620,01.182,552
2023-05-04T04:22:28,42.805,6.029,CST-1368DR,4307,4713,11619,01.183,552
2023-05-04T04:25:29,42.805,6.029,CST-1368DR,4307,4712,11615,01.184,551
2023-05-04T04:28:31,42.805,6.029,CST-1368DR,4307,4713,11619,01.183,552
2023-05-04T04:31:33,42.805,6.029,CST-1368DR,4307,4713,11618,01.183,551
2023-05-04T04:34:34,42.805,6.029,CST-1368DR,4307,4714,11621,01.182,552
2023-05-04T04:37:36,42.805,6.029,CST-1368DR,4307,4713,11617,01.183,552
2023-05-04T04:40:37,42.805,6.029,CST-1368DR,4307,4712,11616,01.184,551
2023-05-04T04:43:39,42.805,6.029,CST-1368DR,4307,4713,11618,01.183,552
2023-05-04T04:46:40,42.805,6.029,CST-1368DR,4307,4714,11620,01.182,552
2023-05-04T04:49:42,42.805,6.029,CST-1368DR,4307,4713,11619,01.183,552
2023-05-04T04:52:44,42.805,6.029,CST-1368DR,4307,4714,11620,01.182,551
2023-05-04T04:55:45,42.805,6.029,CST-1368DR,4307,4713,11618,01.183,551
2023-05-04T04:58:47,42.805,6.029,CST-1368DR,4307,4713,11618,01.183,551
2023-05-04T05:01:48,42.805,6.029,CST-1368DR,4307,4711,11614,01.184,552
2023-05-04T05:04:50,42.805,6.029,CST-1368DR,4307,4713,11617,01.183,551
2023-05-04T05:07:51,42.805,6.029,CST-1368DR,4307,4712,11616,01.184,551
2023-05-04T05:10:53,42.805,6.029,CST-1368DR,4307,4712,11615,01.184,552
2023-05-04T05:13:55,42.805,6.029,CST-1368DR,4307,4710,11610,01.186,552
2023-05-04T05:16:56,42.805,6.029,CST-1368DR,4307,4708,11605,01.187,551
2023-05-04T05:19:58,42.805,6.029,CST-1368DR,4307,4709,11609,01.186,552
2023-05-04T05:22:59,42.805,6.029,CST-1368DR,4307,4712,11615,01.184,551
2023-05-04T05:26:01,42.805,6.029,CST-1368DR,4307,4711,11614,01.184,551
2023-05-04T05:29:03,42.805,6.029,CST-1368DR,4307,4712,11615,01.184,552
2023-05-04T05:32:04,42.805,6.029,CST-1368DR,4307,4712,11615,01.184,551
2023-05-04T05:35:06,42.805,6.029,CST-1368DR,4307,4713,11617,01.183,551
2023-05-04T05:38:07,42.805,6.029,CST-1368DR,4307,4712,11615,01.184,551
2023-05-04T05:41:09,42.805,6.029,CST-1368DR,4307,4709,11609,01.186,551
2023-05-04T05:44:10,42.805,6.029,CST-1368DR,4307,4710,11611,01.185,552
2023-05-04T05:47:12,42.805,6.029,CST-1368DR,4307,4713,11618,01.183,552
2023-05-04T05:50:14,42.805,6.029,CST-1368DR,4307,4712,11616,01.184,552
2023-05-04T05:53:15,42.805,6.029,CST-1368DR,4307,4712,11616,01.184,552
2023-05-04T05:56:17,42.805,6.029,CST-1368DR,4307,4710,11611,01.185,552
2023-05-04T05:59:18,42.805,6.029,CST-1368DR,4307,4710,11612,01.185,552
2023-05-04T06:02:20,42.805,6.029,CST-1368DR,4307,4712,11615,01.184,551
2023-05-04T06:05:21,42.805,6.029,CST-1368DR,4307,4711,11613,01.185,551
2023-05-04T06:08:23,42.805,6.029,CST-1368DR,4307,4711,11612,01.185,552
2023-05-04T06:11:25,42.805,6.029,CST-1368DR,4307,4685,11548,01.207,552
2023-05-04T06:14:26,42.805,6.029,CST-1368DR,4307,4713,11619,01.183,551
2023-05-04T06:17:28,42.805,6.029,CST-1368DR,4307,4714,11620,01.182,551
2023-05-04T06:20:29,42.805,6.029,CST-1368DR,4307,4711,11612,01.185,551
2023-05-04T06:23:31,42.805,6.029,CST-1368DR,4307,4713,11618,01.183,551
2023-05-04T06:26:33,42.805,6.029,CST-1368DR,4307,4712,11615,01.184,552
2023-05-04T06:29:34,42.805,6.029,CST-1368DR,4307,4713,11618,01.183,552
2023-05-04T06:32:36,42.805,6.029,CST-1368DR,4307,4712,11615,01.184,552
2023-05-04T06:35:37,42.805,6.029,CST-1368DR,4307,4713,11619,01.183,552
2023-05-04T06:38:39,42.805,6.029,CST-1368DR,4307,4713,11618,01.183,552
2023-05-04T06:41:40,42.805,6.029,CST-1368DR,4307,4713,11619,01.183,551
2023-05-04T06:44:42,42.805,6.029,CST-1368DR,4307,4708,11607,01.187,552
2023-05-04T06:47:44,42.805,6.029,CST-1368DR,4307,4713,11617,01.183,551
2023-05-04T06:50:45,42.805,6.029,CST-1368DR,4307,4713,11617,01.183,551
2023-05-04T06:53:47,42.805,6.029,CST-1368DR,4307,4710,11612,01.185,552
2023-05-04T06:56:48,42.805,6.029,CST-1368DR,4307,4711,11613,01.185,551
2023-05-04T06:59:50,42.805,6.029,CST-1368DR,4307,4712,11616,01.184,552
2023-05-04T07:02:51,42.805,6.029,CST-1368DR,4307,4711,11613,01.185,551
2023-05-04T07:05:53,42.805,6.029,CST-1368DR,4307,4712,11616,01.184,551
2023-05-04T07:08:55,42.805,6.029,CST-1368DR,4307,4711,11612,01.185,552
2023-05-04T07:11:56,42.805,6.029,CST-1368DR,4307,4713,11618,01.183,552
2023-05-04T07:14:58,42.805,6.029,CST-1368DR,4307,4712,11616,01.184,551
2023-05-04T07:17:59,42.805,6.029,CST-1368DR,4307,4709,11609,01.186,552
2023-05-04T07:21:01,42.805,6.029,CST-1368DR,4307,4711,11613,01.185,551
2023-05-04T07:24:03,42.805,6.029,CST-1368DR,4307,4712,11615,01.184,551
2023-05-04T07:27:04,42.805,6.029,CST-1368DR,4307,4715,11622,01.182,551
2023-05-04T07:30:06,42.805,6.029,CST-1368DR,4307,4711,11612,01.185,552
2023-05-04T07:33:07,42.805,6.029,CST-1368DR,4307,4712,11616,01.184,551
2023-05-04T07:36:09,42.805,6.029,CST-1368DR,4307,4710,11612,01.185,551
2023-05-04T07:39:10,42.805,6.029,CST-1368DR,4307,4708,11606,01.187,551
2023-05-04T07:42:12,42.805,6.029,CST-1368DR,4307,4713,11617,01.183,551
2023-05-04T07:45:14,42.805,6.029,CST-1368DR,4307,4709,11609,01.186,552
2023-05-04T07:48:15,42.805,6.029,CST-1368DR,4307,4710,11610,01.186,551
2023-05-04T07:51:17,42.805,6.029,CST-1368DR,4307,4712,11615,01.184,551
2023-05-04T07:54:18,42.805,6.029,CST-1368DR,4307,4711,11614,01.184,551
2023-05-04T07:57:20,42.805,6.029,CST-1368DR,4307,4713,11617,01.183,551
2023-05-04T08:00:21,42.805,6.029,CST-1368DR,4307,4710,11612,01.185,551
2023-05-04T08:03:23,42.805,6.029,CST-1368DR,4307,4710,11610,01.186,552
2023-05-04T08:06:25,42.805,6.029,CST-1368DR,4307,4708,11606,01.187,551
2023-05-04T08:09:26,42.805,6.029,CST-1368DR,4307,4713,11619,01.183,551
2023-05-04T08:12:28,42.805,6.029,CST-1368DR,4307,4712,11615,01.184,551
2023-05-04T08:15:29,42.805,6.029,CST-1368DR,4307,4710,11610,01.186,551
2023-05-04T08:18:31,42.805,6.029,CST-1368DR,4307,4710,11610,01.186,551
2023-05-04T08:21:33,42.805,6.029,CST-1368DR,4307,4712,11615,01.184,552
2023-05-04T08:24:34,42.805,6.029,CST-1368DR,4307,4713,11617,01.183,551
2023-05-04T08:27:36,42.805,6.029,CST-1368DR,4307,4713,11618,01.183,552
2023-05-04T08:30:37,42.805,6.029,CST-1368DR,4307,4712,11616,01.184,552
2023-05-04T08:33:39,42.805,6.029,CST-1368DR,4307,4713,11617,01.183,551
2023-05-04T08:36:40,42.805,6.029,CST-1368DR,4307,4714,11620,01.182,551
2023-05-04T08:39:42,42.805,6.029,CST-1368DR,4307,4712,11615,01.184,552
2023-05-04T08:42:44,42.805,6.029,CST-1368DR,4307,4711,11614,01.184,551
2023-05-04T08:45:45,42.805,6.029,CST-1368DR,4307,4711,11614,01.184,551
2023-05-04T08:48:47,42.805,6.029,CST-1368DR,4307,4711,11613,01.185,551
2023-05-04T08:51:48,42.805,6.029,CST-1368DR,4307,4712,11616,01.184,551
2023-05-04T08:54:50,42.805,6.029,CST-1368DR,4307,4711,11614,01.184,552
2023-05-04T08:57:51,42.805,6.029,CST-1368DR,4307,4711,11614,01.184,551
2023-05-04T09:00:53,42.805,6.029,CST-1368DR,4307,4710,11610,01.186,551
2023-05-04T09:03:55,42.805,6.029,CST-1368DR,4307,4712,11616,01.184,552
2023-05-04T09:06:56,42.805,6.029,CST-1368DR,4307,4713,11618,01.183,552
2023-05-04T09:09:58,42.805,6.029,CST-1368DR,4307,4712,11615,01.184,551
2023-05-04T09:12:59,42.805,6.029,CST-1368DR,4307,4712,11616,01.184,551
2023-05-04T09:16:01,42.805,6.029,CST-1368DR,4307,4713,11619,01.183,551
2023-05-04T09:19:03,42.805,6.029,CST-1368DR,4307,4713,11617,01.183,551
2023-05-04T09:22:04,42.805,6.029,CST-1368DR,4307,4712,11616,01.184,552
2023-05-04T09:25:06,42.805,6.029,CST-1368DR,4307,4717,11629,01.179,551
2023-05-04T09:28:07,42.805,6.029,CST-1368DR,4307,4711,11614,01.184,551
2023-05-04T09:31:09,42.805,6.029,CST-1368DR,4307,4713,11618,01.183,552
2023-05-04T09:34:10,42.805,6.029,CST-1368DR,4307,4711,11614,01.184,551
2023-05-04T09:37:12,42.805,6.029,CST-1368DR,4307,4711,11612,01.185,551
2023-05-04T09:40:14,42.805,6.029,CST-1368DR,4307,4712,11615,01.184,551
2023-05-04T09:43:15,42.805,6.029,CST-1368DR,4307,4712,11615,01.184,551
2023-05-04T09:46:17,42.805,6.029,CST-1368DR,4307,4705,11598,01.190,551
2023-05-04T09:49:18,42.805,6.029,CST-1368DR,4307,4703,11593,01.192,552
2023-05-04T09:52:20,42.805,6.029,CST-1368DR,4307,4709,11608,01.186,551
2023-05-04T09:55:21,42.805,6.029,CST-1368DR,4307,4712,11615,01.184,551
2023-05-04T09:58:23,42.805,6.029,CST-1368DR,4307,4712,11616,01.184,552
2023-05-04T10:01:25,42.805,6.029,CST-1368DR,4307,4714,11620,01.182,551
2023-05-04T10:04:26,42.805,6.029,CST-1368DR,4307,4710,11612,01.185,551
2023-05-04T10:07:28,42.805,6.029,CST-1368DR,4307,4711,11614,01.184,551
2023-05-04T10:10:29,42.805,6.029,CST-1368DR,4307,4712,11616,01.184,551
2023-05-04T10:13:31,42.805,6.029,CST-1368DR,4307,4710,11611,01.185,552
2023-05-04T10:16:32,42.805,6.029,CST-1368DR,4307,4712,11615,01.184,552
2023-05-04T10:19:34,42.805,6.029,CST-1368DR,4307,4709,11608,01.186,552
2023-05-04T10:22:36,42.805,6.029,CST-1368DR,4307,4709,11609,01.186,552
2023-05-04T10:25:37,42.805,6.029,CST-1368DR,4307,4709,11608,01.186,551
2023-05-04T10:28:39,42.805,6.029,CST-1368DR,4307,4707,11604,01.188,551
2023-05-04T10:31:40,42.805,6.029,CST-1368DR,4307,4707,11604,01.188,551
2023-05-04T10:34:42,42.805,6.029,CST-1368DR,4307,4706,11600,01.189,552
2023-05-04T10:37:44,42.805,6.029,CST-1368DR,4307,4706,11601,01.189,551
2023-05-04T10:40:45,42.805,6.029,CST-1368DR,4307,4706,11600,01.189,551
2023-05-04T10:43:47,42.805,6.029,CST-1368DR,4307,4705,11597,01.190,551
2023-05-04T10:46:48,42.805,6.029,CST-1368DR,4307,4707,11603,01.188,551
2023-05-04T10:49:50,42.805,6.029,CST-1368DR,4307,4706,11602,01.188,551
2023-05-04T10:52:51,42.805,6.029,CST-1368DR,4307,4708,11605,01.187,552
2023-05-04T10:55:53,42.805,6.029,CST-1368DR,4307,4705,11597,01.190,551
2023-05-04T10:58:55,42.805,6.029,CST-1368DR,4307,4707,11602,01.188,552
2023-05-04T11:01:56,42.805,6.029,CST-1368DR,4307,4708,11607,01.187,552
2023-05-04T11:04:58,42.805,6.029,CST-1368DR,4307,4706,11600,01.189,552
2023-05-04T11:07:59,42.805,6.029,CST-1368DR,4307,4704,11597,01.190,552
2023-05-04T11:11:01,42.805,6.029,CST-1368DR,4307,4705,11599,01.190,552
2023-05-04T11:14:02,42.805,6.029,CST-1368DR,4307,4707,11602,01.188,552
2023-05-04T11:17:04,42.805,6.029,CST-1368DR,4307,4706,11602,01.188,552
2023-05-04T11:20:06,42.805,6.029,CST-1368DR,4307,4705,11598,01.190,552
2023-05-04T11:23:07,42.805,6.029,CST-1368DR,4307,4706,11600,01.189,552
2023-05-04T11:26:09,42.805,6.029,CST-1368DR,4307,4705,11599,01.190,552
2023-05-04T11:29:10,42.805,6.029,CST-1368DR,4307,4706,11600,01.189,551
2023-05-04T11:32:12,42.805,6.029,CST-1368DR,4307,4705,11599,01.190,551
2023-05-04T11:35:14,42.805,6.029,CST-1368DR,4307,4705,11597,01.190,551
2023-05-04T11:38:15,42.805,6.029,CST-1368DR,4307,4706,11600,01.189,551
2023-05-04T11:41:17,42.805,6.029,CST-1368DR,4307,4705,11599,01.190,551
2023-05-04T11:44:18,42.805,6.029,CST-1368DR,4307,4705,11599,01.190,552
2023-05-04T11:47:20,42.805,6.029,CST-1368DR,4307,4706,11600,01.189,552
2023-05-04T11:50:21,42.805,6.029,CST-1368DR,4307,4706,11600,01.189,551
2023-05-04T11:53:23,42.805,6.029,CST-1368DR,4307,4708,11605,01.187,552
2023-05-04T11:56:25,42.805,6.029,CST-1368DR,4307,4706,11601,01.189,551
2023-05-04T11:59:26,42.805,6.029,CST-1368DR,4307,4706,11601,01.189,552
2023-05-04T12:02:28,42.805,6.029,CST-1368DR,4307,4707,11604,01.188,552
2023-05-04T12:05:29,42.805,6.029,CST-1368DR,4307,4706,11601,01.189,551
2023-05-04T12:08:31,42.805,6.029,CST-1368DR,4307,4707,11603,01.188,552
2023-05-04T12:11:32,42.805,6.029,CST-1368DR,4307,4706,11600,01.189,552
2023-05-04T12:14:34,42.805,6.029,CST-1368DR,4307,4704,11596,01.191,552
2023-05-04T12:17:36,42.805,6.029,CST-1368DR,4307,4709,11609,01.186,551
2023-05-04T12:20:37,42.805,6.029,CST-1368DR,4307,4698,11581,01.196,552
2023-05-04T12:23:39,42.805,6.029,CST-1368DR,4307,4706,11600,01.189,551
2023-05-04T12:26:40,42.805,6.029,CST-1368DR,4307,4704,11597,01.190,551
2023-05-04T12:29:42,42.805,6.029,CST-1368DR,4307,4709,11608,01.186,552
2023-05-04T12:32:45,42.805,6.029,CST-1368DR,4307,4706,11600,01.189,552
2023-05-04T12:35:46,42.805,6.029,CST-1368DR,4307,4708,11607,01.187,552
2023-05-04T12:38:48,42.805,6.029,CST-1368DR,4307,4710,11612,01.185,552
2023-05-04T12:41:49,42.805,6.029,CST-1368DR,4307,4703,11594,01.191,552
2023-05-04T12:44:51,42.805,6.029,CST-1368DR,4307,4699,11584,01.195,552
2023-05-04T12:47:52,42.805,6.029,CST-1368DR,4307,4704,11596,01.191,551
2023-05-04T12:50:54,42.805,6.029,CST-1368DR,4307,4706,11600,01.189,552
2023-05-04T12:53:56,42.805,6.029,CST-1368DR,4307,4705,11599,01.190,551
2023-05-04T12:56:57,42.805,6.029,CST-1368DR,4307,4705,11598,01.190,552
2023-05-04T12:59:59,42.805,6.029,CST-1368DR,4307,4701,11589,01.193,552
2023-05-04T13:03:00,42.805,6.029,CST-1368DR,4307,4702,11590,01.193,552
2023-05-04T13:06:02,42.805,6.029,CST-1368DR,4307,4697,11579,01.196,552
2023-05-04T13:09:04,42.805,6.029,CST-1368DR,4307,4697,11579,01.196,552
2023-05-04T13:12:05,42.805,6.029,CST-1368DR,4307,4698,11581,01.196,552
2023-05-04T13:15:07,42.805,6.029,CST-1368DR,4307,4701,11589,01.193,552
2023-05-04T13:18:08,42.805,6.029,CST-1368DR,4307,4699,11584,01.195,552
2023-05-04T13:21:10,42.805,6.029,CST-1368DR,4307,4698,11581,01.196,551
2023-05-04T13:24:11,42.805,6.029,CST-1368DR,4307,4702,11591,01.192,552
2023-05-04T13:27:13,42.805,6.029,CST-1368DR,4307,4699,11583,01.195,551
2023-05-04T13:30:15,42.805,6.029,CST-1368DR,4307,4700,11587,01.194,552
2023-05-04T13:33:16,42.805,6.029,CST-1368DR,4307,4699,11584,01.195,552
2023-05-04T13:36:18,42.805,6.029,CST-1368DR,4307,4703,11594,01.191,552
2023-05-04T13:39:19,42.805,6.029,CST-1368DR,4307,4703,11594,01.191,551
2023-05-04T13:42:21,42.805,6.029,CST-1368DR,4307,4702,11592,01.192,552
2023-05-04T13:45:22,42.805,6.029,CST-1368DR,4307,4699,11583,01.195,551
2023-05-04T13:48:24,42.805,6.029,CST-1368DR,4307,4698,11581,01.196,552
2023-05-04T13:51:26,42.805,6.029,CST-1368DR,4307,4698,11581,01.196,552
2023-05-04T13:54:27,42.805,6.029,CST-1368DR,4307,4699,11583,01.195,552
2023-05-04T13:57:29,42.805,6.029,CST-1368DR,4307,4698,11580,01.196,552
2023-05-04T14:00:30,42.805,6.029,CST-1368DR,4307,4698,11582,01.195,552
2023-05-04T14:03:32,42.805,6.029,CST-1368DR,4307,4698,11580,01.196,552
2023-05-04T14:06:33,42.805,6.029,CST-1368DR,4307,4696,11577,01.197,552
2023-05-04T14:09:35,42.805,6.029,CST-1368DR,4307,4702,11592,01.192,551
2023-05-04T14:12:37,42.805,6.029,CST-1368DR,4307,4702,11591,01.192,551
2023-05-04T14:15:38,42.805,6.029,CST-1368DR,4307,4697,11578,01.197,552
2023-05-04T14:18:40,42.805,6.029,CST-1368DR,4307,4700,11586,01.194,551
2023-05-04T14:21:41,42.805,6.029,CST-1368DR,4307,4695,11575,01.198,551
2023-05-04T14:24:43,42.805,6.029,CST-1368DR,4307,4702,11591,01.192,551
2023-05-04T14:27:45,42.805,6.029,CST-1368DR,4307,4702,11590,01.193,552
2023-05-04T14:30:46,42.805,6.029,CST-1368DR,4307,4697,11579,01.196,552
2023-05-04T14:33:48,42.805,6.029,CST-1368DR,4307,4701,11589,01.193,552
2023-05-04T14:36:49,42.805,6.029,CST-1368DR,4307,4698,11581,01.196,551
2023-05-04T14:39:51,42.805,6.029,CST-1368DR,4307,4696,11577,01.197,551
2023-05-04T14:42:52,42.805,6.029,CST-1368DR,4307,4698,11581,01.196,551
2023-05-04T14:45:54,42.805,6.029,CST-1368DR,4307,4697,11578,01.197,552
2023-05-04T14:48:56,42.805,6.029,CST-1368DR,4307,4699,11583,01.195,551
2023-05-04T14:51:57,42.805,6.029,CST-1368DR,4307,4707,11603,01.188,551
2023-05-04T14:54:59,42.805,6.029,CST-1368DR,4307,4711,11614,01.184,552
2023-05-04T14:58:00,42.805,6.029,CST-1368DR,4307,4708,11607,01.187,551
2023-05-04T15:01:02,42.805,6.029,CST-1368DR,4307,4708,11605,01.187,552
2023-05-04T15:04:03,42.805,6.029,CST-1368DR,4307,4705,11599,01.190,552
2023-05-04T15:07:05,42.805,6.029,CST-1368DR,4307,4705,11599,01.190,551
2023-05-04T15:10:07,42.805,6.029,CST-1368DR,4307,4709,11608,01.186,552
2023-05-04T15:13:08,42.805,6.029,CST-1368DR,4307,4704,11597,01.190,552
2023-05-04T15:16:10,42.805,6.029,CST-1368DR,4307,4703,11594,01.191,552
2023-05-04T15:19:11,42.805,6.029,CST-1368DR,4307,4706,11601,01.189,552
2023-05-04T15:22:13,42.805,6.029,CST-1368DR,4307,4704,11597,01.190,551
2023-05-04T15:25:14,42.805,6.029,CST-1368DR,4307,4707,11602,01.188,552
2023-05-04T15:28:16,42.805,6.029,CST-1368DR,4307,4708,11606,01.187,552
2023-05-04T15:31:18,42.805,6.029,CST-1368DR,4307,4709,11607,01.187,551
2023-05-04T15:34:19,42.805,6.029,CST-1368DR,4307,4709,11608,01.186,552
2023-05-04T15:37:21,42.805,6.029,CST-1368DR,4307,4709,11607,01.187,551
2023-05-04T15:40:22,42.805,6.029,CST-1368DR,4307,4710,11611,01.185,552
2023-05-04T15:43:24,42.805,6.029,CST-1368DR,4307,4710,11610,01.186,552
2023-05-04T15:46:26,42.805,6.029,CST-1368DR,4307,4709,11607,01.187,552
2023-05-04T15:49:27,42.805,6.029,CST-1368DR,4307,4709,11607,01.187,552
2023-05-04T15:52:29,42.805,6.029,CST-1368DR,4307,4706,11600,01.189,552
2023-05-04T15:55:30,42.805,6.029,CST-1368DR,4307,4713,11618,01.183,551
2023-05-04T15:58:32,42.805,6.029,CST-1368DR,4307,4707,11604,01.188,551
2023-05-04T16:01:33,42.805,6.029,CST-1368DR,4307,4706,11600,01.189,552
2023-05-04T16:04:35,42.805,6.029,CST-1368DR,4307,4705,11599,01.190,552
2023-05-04T16:07:37,42.805,6.029,CST-1368DR,4307,4707,11603,01.188,552
2023-05-04T16:10:38,42.805,6.029,CST-1368DR,4307,4707,11603,01.188,552
2023-05-04T16:13:40,42.805,6.029,CST-1368DR,4307,4706,11600,01.189,551
2023-05-04T16:16:41,42.805,6.029,CST-1368DR,4307,4706,11600,01.189,552
2023-05-04T16:19:43,42.805,6.029,CST-1368DR,4307,4706,11600,01.189,552
2023-05-04T16:22:44,42.805,6.029,CST-1368DR,4307,4706,11602,01.188,551
2023-05-04T16:25:46,42.805,6.029,CST-1368DR,4307,4706,11602,01.188,552
2023-05-04T16:28:48,42.805,6.029,CST-1368DR,4307,4705,11598,01.190,552
2023-05-04T16:31:49,42.805,6.029,CST-1368DR,4307,4704,11595,01.191,552
2023-05-04T16:34:51,42.805,6.029,CST-1368DR,4307,4703,11593,01.192,552
2023-05-04T16:37:52,42.805,6.029,CST-1368DR,4307,4703,11594,01.191,551